Location: Navajo
(48.7922°N, 105.0603°W)
Time: 10:31:50
(UTC+00:00)

ISS - Visible Passes

Search period start: 28 November 2023 00:00
Search period end: 08 December 2023 00:00
Orbit: 416 x 418 km, 51.6° (Epoch: 28 November)

Date Brightness Start Highest point End Pass type
(mag) Time Alt. Az. Time Alt. Az. Time Alt. Az.
28 Nov -3.6 01:01:43 10° WNW 01:05:02 55° N 01:05:13 54° NNE visible
29 Nov -3.4 00:13:24 10° WNW 00:16:42 50° N 00:18:56 18° ENE visible
29 Nov -1.6 01:50:14 10° WNW 01:51:51 26° WNW 01:51:51 26° WNW visible
30 Nov -3.9 01:01:54 10° WNW 01:05:17 79° NNE 01:05:34 70° ENE visible
01 Dec -3.7 00:13:31 10° WNW 00:16:53 63° NNE 00:19:21 17° E visible
01 Dec -1.6 01:50:23 10° WNW 01:52:16 26° W 01:52:16 26° W visible
02 Dec -3.3 01:01:54 10° WNW 01:05:12 57° SSW 01:06:07 40° SSE visible
03 Dec -3.7 00:13:24 10° WNW 00:16:46 81° SSW 00:20:05 10° ESE visible
03 Dec -1.2 01:50:44 10° W 01:53:01 18° SW 01:53:01 18° SW visible
04 Dec -1.8 01:01:52 10° W 01:04:47 27° SW 01:07:11 13° SSE visible
05 Dec -2.4 00:13:09 10° WNW 00:16:20 41° SSW 00:19:31 10° SE visible
06 Dec -0.6 01:02:28 10° WSW 01:04:00 13° SW 01:05:30 10° SSW visible
07 Dec -0.9 00:13:04 10° W 00:15:33 19° SW 00:18:02 10° S visible
